Weather History for Detroit Lakes, MN

Change the Weather History Date:

Saturday, October 13, 2012

  Actual Average Record
Temperature  
Mean Temperature 52 °F -  
Max Temperature 62 °F 58 °F 83 °F (1956)
Min Temperature 41 °F 36 °F 16 °F (1937)
Degree Days  
Heating Degree Days 14    
Growing Degree Days 2 (Base 50)    
Moisture  
Dew Point 36 °F    
Average Humidity 57    
Maximum Humidity 81    
Minimum Humidity 30    
Precipitation  
Precipitation 0.00 in - - ()
Sea Level Pressure  
Sea Level Pressure 29.74 in    
Wind  
Wind Speed 10 mph (SSW)    
Max Wind Speed 16 mph    
Max Gust Speed 22 mph    
Visibility 10 miles    
Events      
Averages and records for this station are not official NWS values.
T = Trace of Precipitation, MM = Missing Value Source: NWS Daily Summary

Daily Weather History Graph

Daily Weather History Graph

Search for Another Location

Airport:

Trip Planner

Search our weather history database for the weather conditions in past years. The results will help you decide how hot, cold, wet, or windy it might be!

Date:

Astronomy

Oct. 13, 2012 Rise Set
Actual Time 7:39 AM CDT 6:39 PM CDT
Civil Twilight 7:08 AM CDT 7:09 PM CDT
Nautical Twilight 6:33 AM CDT 7:44 PM CDT
Astronomical Twilight 5:58 AM CDT 8:19 PM CDT
Moon 5:24 AM CDT (10/13) 5:26 PM CDT (10/13)
Length of Visible Light 12h 00m
Length of Day
10h 59m
Waning Crescent, 5% of the Moon is Illuminated
Oct 13
Waning Crescent
Oct 15
New
Oct 21
First Quarter
Oct 29
Full
Nov 6
Last Quarter

Hourly Weather History & Observations

Time (CDT) Temp. Windchill Dew Point Humidity Pressure Visibility Wind Dir Wind Speed Gust Speed Precip Events Conditions
12:12 AM 50.0 °F - 19.4 °F 30% 29.86 in 10.0 mi South 15.0 mph - N/A   Overcast
12:53 AM 50.0 °F - 21.2 °F 32% 29.84 in 10.0 mi South 15.0 mph - N/A   Overcast
1:12 AM 50.0 °F - 21.2 °F 32% 29.83 in 10.0 mi South 16.1 mph 20.7 mph N/A   Overcast
1:33 AM 50.0 °F - 21.2 °F 32% 29.82 in 10.0 mi South 13.8 mph 21.9 mph N/A   Overcast
1:53 AM 50.0 °F - 21.2 °F 32% 29.82 in 10.0 mi South 12.7 mph - N/A   Overcast
2:12 AM 50.0 °F - 23.0 °F 35% 29.81 in 10.0 mi South 12.7 mph 16.1 mph N/A   Overcast
2:33 AM 50.0 °F - 23.0 °F 35% 29.80 in 10.0 mi South 12.7 mph 17.3 mph N/A   Overcast
2:53 AM 50.0 °F - 23.0 °F 35% 29.80 in 10.0 mi South 10.4 mph - N/A   Overcast
3:12 AM 50.0 °F - 23.0 °F 35% 29.79 in 10.0 mi South 10.4 mph - N/A   Overcast
3:33 AM 50.0 °F - 26.6 °F 40% 29.79 in 10.0 mi South 6.9 mph - N/A   Overcast
3:53 AM 50.0 °F - 28.4 °F 43% 29.78 in 10.0 mi South 8.1 mph - N/A   Overcast
4:13 AM 50.0 °F - 30.2 °F 47% 29.76 in 10.0 mi South 6.9 mph - N/A   Overcast
4:32 AM 48.2 °F - 30.2 °F 50% 29.75 in 10.0 mi South 8.1 mph - N/A   Mostly Cloudy
4:53 AM 50.0 °F - 35.6 °F 58% 29.74 in 10.0 mi South 10.4 mph - N/A   Mostly Cloudy
5:13 AM 48.2 °F - 37.4 °F 66% 29.73 in 10.0 mi South 10.4 mph - N/A   Overcast
5:32 AM 46.4 °F 41.1 °F 39.2 °F 76% 29.73 in 10.0 mi South 11.5 mph - N/A   Scattered Clouds
5:53 AM 46.4 °F 40.4 °F 41.0 °F 81% 29.73 in 10.0 mi South 13.8 mph 19.6 mph N/A   Scattered Clouds
6:13 AM 46.4 °F 41.5 °F 39.2 °F 76% 29.73 in 10.0 mi South 10.4 mph - N/A   Scattered Clouds
6:32 AM 46.4 °F 42.9 °F 39.2 °F 76% 29.73 in 10.0 mi South 6.9 mph - N/A   Clear
6:53 AM 44.6 °F 40.2 °F 39.2 °F 81% 29.73 in 10.0 mi South 8.1 mph - N/A   Clear
7:13 AM 44.6 °F 39.7 °F 39.2 °F 81% 29.73 in 10.0 mi South 9.2 mph - N/A   Clear
7:32 AM 44.6 °F 40.7 °F 37.4 °F 76% 29.73 in 10.0 mi South 6.9 mph - N/A   Clear
7:53 AM 42.8 °F 40.1 °F 37.4 °F 81% 29.73 in 10.0 mi South 4.6 mph - N/A   Clear
8:13 AM 42.8 °F 40.1 °F 37.4 °F 81% 29.72 in 10.0 mi South 4.6 mph - N/A   Clear
8:53 AM 46.4 °F 42.4 °F 39.2 °F 76% 29.71 in 10.0 mi SSE 8.1 mph - N/A   Clear
9:32 AM 50.0 °F - 39.2 °F 66% 29.71 in 10.0 mi South 9.2 mph - N/A   Clear
9:53 AM 50.0 °F - 41.0 °F 71% 29.73 in 10.0 mi SSW 8.1 mph - N/A   Clear
10:32 AM 51.8 °F - 41.0 °F 67% 29.71 in 10.0 mi SSW 8.1 mph - N/A   Clear
10:53 AM 53.6 °F - 41.0 °F 62% 29.71 in 10.0 mi SSW 8.1 mph - N/A   Clear
11:13 AM 53.6 °F - 41.0 °F 62% 29.69 in 10.0 mi SW 9.2 mph - N/A   Clear
11:32 AM 53.6 °F - 41.0 °F 62% 29.70 in 10.0 mi SSW 5.8 mph - N/A   Clear
11:53 AM 55.4 °F - 41.0 °F 58% 29.69 in 10.0 mi SSW 4.6 mph - N/A   Clear
12:13 PM 55.4 °F - 41.0 °F 58% 29.69 in 10.0 mi South 4.6 mph - N/A   Clear
12:32 PM 55.4 °F - 41.0 °F 58% 29.68 in 10.0 mi SW 8.1 mph - N/A   Clear
12:53 PM 55.4 °F - 41.0 °F 58% 29.68 in 10.0 mi South 3.5 mph - N/A   Clear
1:13 PM 57.2 °F - 41.0 °F 55% 29.67 in 10.0 mi SSE 6.9 mph - N/A   Clear
1:32 PM 59.0 °F - 41.0 °F 51% 29.67 in 10.0 mi SSW 6.9 mph - N/A   Clear
1:53 PM 59.0 °F - 41.0 °F 51% 29.66 in 10.0 mi South 5.8 mph - N/A   Clear
2:12 PM 59.0 °F - 41.0 °F 51% 29.67 in 10.0 mi SSW 5.8 mph - N/A   Clear
2:33 PM 60.8 °F - 41.0 °F 48% 29.66 in 10.0 mi SW 8.1 mph - N/A   Clear
2:53 PM 60.8 °F - 41.0 °F 48% 29.67 in 10.0 mi SSW 6.9 mph - N/A   Clear
3:13 PM 60.8 °F - 41.0 °F 48% 29.67 in 10.0 mi SW 4.6 mph - N/A   Clear
3:33 PM 62.6 °F - 41.0 °F 45% 29.68 in 10.0 mi West 8.1 mph - N/A   Clear
3:52 PM 62.6 °F - 41.0 °F 45% 29.68 in 10.0 mi West 6.9 mph - N/A   Clear
4:13 PM 62.6 °F - 41.0 °F 45% 29.68 in 10.0 mi West 6.9 mph - N/A   Clear
4:33 PM 62.6 °F - 41.0 °F 45% 29.69 in 10.0 mi NW 8.1 mph - N/A   Clear
4:52 PM 62.6 °F - 41.0 °F 45% 29.69 in 10.0 mi WNW 9.2 mph - N/A   Clear
5:13 PM 62.6 °F - 41.0 °F 45% 29.69 in 10.0 mi WNW 6.9 mph - N/A   Clear
5:52 PM 59.0 °F - 41.0 °F 51% 29.71 in 10.0 mi NNW 9.2 mph - N/A   Clear
6:13 PM 57.2 °F - 41.0 °F 55% 29.71 in 10.0 mi NW 8.1 mph - N/A   Clear
6:32 PM 55.4 °F - 39.2 °F 54% 29.72 in 10.0 mi NW 6.9 mph - N/A   Clear
7:33 PM 51.8 °F - 39.2 °F 62% 29.75 in 10.0 mi NW 9.2 mph - N/A   Clear
7:53 PM 50.0 °F - 37.4 °F 62% 29.76 in 10.0 mi NNW 9.2 mph - N/A   Clear
8:53 PM 46.4 °F 41.5 °F 37.4 °F 71% 29.78 in 10.0 mi NNW 10.4 mph - N/A   Clear
9:13 PM 44.6 °F 40.2 °F 35.6 °F 71% 29.78 in 10.0 mi NNW 8.1 mph - N/A   Clear
9:32 PM 44.6 °F 38.8 °F 35.6 °F 71% 29.79 in 10.0 mi NNW 11.5 mph - N/A   Clear
9:53 PM 44.6 °F 40.2 °F 35.6 °F 71% 29.80 in 10.0 mi NNW 8.1 mph - N/A   Clear
10:13 PM 42.8 °F 37.0 °F 35.6 °F 76% 29.81 in 10.0 mi NNW 10.4 mph - N/A   Clear
11:13 PM 41.0 °F 36.4 °F 33.8 °F 76% 29.81 in 10.0 mi NNW 6.9 mph - N/A   Clear
11:32 PM 41.0 °F 38.0 °F 33.8 °F 76% 29.81 in 10.0 mi NNW 4.6 mph - N/A   Clear